Regional Weather Roundup
Issued by NWS

Home | Current Version | Previous Version | Text Only | Print | Product List | Glossary Off
Versions: 1 2 3 4 5 6 7 8 9 10 11 12 13 14 15 16 17 18 19 20 21 22 23 24 25 26 27 28 29 30 31 32 33 34 35 36 37 38 39 40 41 42 43 44 45 46 47 48 49 50

000
ASUS43 KDMX 241001
RWRIA

WEATHER ROUNDUP FOR IOWA
NATIONAL WEATHER SERVICE DES MOINES IA
400 AM CST FRI FEB 24 2017

NOTE: "FAIR" INDICATES FEW OR NO CLOUDS BELOW 12,000 FEET WITH NO
SIGNIFICANT WEATHER AND/OR OBSTRUCTIONS TO VISIBILITY.

* - THESE STATIONS ARE NOT NWS STATIONS...THUS NOT UNDER NWS
QUALITY CONTROL.  THEY ALSO DO NOT REPORT WEATHER SUCH
AS PRECIPITATION OR FOG.

IAZ001>003-012>014-020>022-031>034-043>046-241100-
   NORTHWEST IOWA

CITY           SKY/WX    TMP DP  RH WIND       PRES   REMARKS
CARROLL *      CLOUDY    30  30 100 NE25G36   29.60R FOG     WCI  16
CHEROKEE *     CLOUDY    28  26  93 N21G30    29.71R WCI  14
DENISON *      HVY RAIN  30  28  93 N22G29    29.60R WCI  17
LE MARS *      LGT RAIN  27  25  93 N18G26    29.76R WCI  13
ORANGE CITY *    N/A     25  23  93 N16G29    29.75R WCI  12
SHELDON *      MIX PCPN  25  25 100 N28G35    29.74R WCI   8
SIOUX CITY     SNOW      30  27  88 N23       29.74R VSB 1/4 WCI  17
SPENCER        CLOUDY    26  23  88 N26G35    29.71R FOG     WCI  10
STORM LAKE *   LGT SNOW  27  27 100 N31G38    29.65R WCI  10
$$

IAZ055>058-069>071-079>083-090>094-241100-
   SOUTHWEST IOWA

CITY           SKY/WX    TMP DP  RH WIND       PRES   REMARKS
ATLANTIC *     CLOUDY    34  32  93 NE23G35   29.56S WCI  22
CLARINDA *     CLOUDY    36  34  93 NE14G24   29.55S WCI  27
COUNCIL BLFS * CLOUDY    32  32 100 N23       29.60R WCI  19
CRESTON *      CLOUDY    34  34 100 NE15G28   29.51R WCI  24
HARLAN  *      CLOUDY    32  32 100 NE21G31   29.62R WCI  20
LAMONI         CLOUDY    38  37  97 N21G30    29.43F WCI  28
RED OAK *      CLOUDY    36  32  87 NE18G29   29.55F WCI  25
SHENANDOAH *   CLOUDY    36  32  87 N16       29.56S WCI  26
$$

IAZ047>049-059>061-072>074-084-241100-
   CENTRAL IOWA

CITY           SKY/WX    TMP DP  RH WIND       PRES   REMARKS
AMES           CLOUDY    34  34 100 NE21G28   29.55S WCI  22
ANKENY *       CLOUDY    34  32  93 N21G28    29.53F WCI  22
BOONE *        CLOUDY    32  32 100 NE29G36   29.53S WCI  18
CHARITON *     MIX PCPN  36  36 100 N20       29.45F WCI  25
DES MOINES     CLOUDY    36  33  89 NE21G29   29.51F WCI  25
GRINNELL*      CLOUDY    34  32  94 NE20G29   29.51F WCI  22
KNOXVILLE *    CLOUDY    36  34  93 N18       29.47S FOG     WCI  25
MARSHALLTOWN   CLOUDY    33  32  96 NE23      29.53F WCI  21
NEWTON *       CLOUDY    34  32  93 NE21G30   29.50R WCI  22
PELLA *        CLOUDY    36  35  96 NE15      29.50R FOG     WCI  26
PERRY *        CLOUDY    34  32  93 N21G30    29.56R WCI  22
$$

IAZ004>006-015-016-023>025-035-036-241100-
   NORTH CENTRAL IOWA

CITY           SKY/WX    TMP DP  RH WIND       PRES   REMARKS
ALGONA *       FOG       27  27 100 N35G41    29.65R VSB 1   WCI   9
CLARION *      FOG       30  30 100 N37G46    29.58S VSB 1/4 WCI  14
ESTHERVILLE    FOG       24  24 100 N31G39    29.69F VSB<1/4 WCI   7
FORT DODGE *   CLOUDY    28  25  86 N21G30    29.61R WCI  15
MASON CITY     LGT SNOW  28  32 100 N33G46    29.64F VSB 1   WCI  11
FOREST CITY *  LGT SNOW  30  30 100 NE22G32   29.66R WCI  17
IOWA FALLS *   CLOUDY    32  31  97 N25G33    29.57  WCI  19
$$

IAZ007>011-017>019-026>030-037>042-050>054-066-241100-
   NORTHEAST IOWA

CITY           SKY/WX    TMP DP  RH WIND       PRES   REMARKS
CEDAR RAPIDS   LGT RAIN  35  35 100 N14       29.50F FOG     WCI  26
CHARLES CITY * HVY RAIN  32  32 100 N20G28    29.63F WCI  20
CLINTON *      MIX PCPN  37  35  92 NE22      29.46F WCI  26
DECORAH *      LGT SNOW  32  32 100 N10       29.64S WCI  24
DUBUQUE        CLOUDY    33  33 100 NE25      29.52S FOG     WCI  20
MONTICELLO *   CLOUDY    34  34 100 NE14G23   29.52R FOG     WCI  24
OELWEIN *      CLOUDY    32  32 100 NE22G32   29.58F WCI  19
WATERLOO       CLOUDY    33  31  92 N16G25    29.59S WCI  23
$$

IAZ064-065-067-068-078-241100-
   EAST CENTRAL IOWA

CITY           SKY/WX    TMP DP  RH WIND       PRES   REMARKS
DAVENPORT      CLOUDY    38  36  92 NE17      29.45F WCI  28
IOWA CITY      CLOUDY    38  35  89 NE16G25   29.47F WCI  29
MUSCATINE *    MIX PCPN  39  37  93 NE17      29.44F WCI  30
QUAD CITIES    CLOUDY    41  37  86 NE13      29.42F
$$

IAZ062-063-075>077-085>089-095>099-241100-
   SOUTHEAST IOWA

CITY           SKY/WX    TMP DP  RH WIND       PRES   REMARKS
BURLINGTON     CLOUDY    43  43 100 N12       29.40R FOG
FAIRFIELD *    CLOUDY    37  37 100 N15       29.44R FOG     WCI  28
KEOKUK *       PTCLDY    46  46 100 N9        29.39R FOG
OTTUMWA        CLOUDY    37  37 100 NE17G26   29.43F FOG     WCI  27
WASHINGTON *   CLOUDY    37  37 100 NE20G26   29.44F WCI  27
$$

ABBREVIATIONS USED IN REMARKS
   TC - TEMPERATURES IN CELSIUS
  WCI - WIND CHILL INDEX
   HX - HEAT INDEX
  VSB - VISIBILITY
$$





USA.gov is the U.S. government's official web portal to all federal, state and local government web resources and services.